Location: Augsburg
(48.3836°N, 10.8929°E)
Time: 05:11:09
(UTC+02:00)

ISS - Visible Passes

Search period start: 20 July 2018 00:00
Search period end: 30 July 2018 00:00
Orbit: 402 x 408 km, 51.6° (Epoch: 20 July)

Date Brightness Start Highest point End Pass type
(mag) Time Alt. Az. Time Alt. Az. Time Alt. Az.
20 Jul -3.2 00:38:57 10° W 00:42:12 57° NNW 00:45:28 10° ENE visible
20 Jul -2.8 02:15:47 10° WNW 02:19:00 48° N 02:22:13 10° E visible
20 Jul -3.9 03:52:20 10° WNW 03:55:37 68° SSW 03:58:54 10° ESE visible
20 Jul -2.8 22:11:02 10° SSW 22:13:47 25° SE 22:16:34 10° E visible
20 Jul -3.7 23:46:46 10° WSW 23:50:03 75° NNW 23:53:21 10° ENE visible
21 Jul -2.7 01:23:37 10° WNW 01:26:48 45° N 01:30:00 10° ENE visible
21 Jul -3.8 03:00:13 10° WNW 03:03:32 82° NNE 03:06:50 10° ESE visible
21 Jul -2.6 04:37:05 10° W 04:39:45 22° SW 04:42:23 10° SSE visible
21 Jul -4.0 22:54:39 10° WSW 22:57:56 76° SSE 23:01:13 10° ENE visible
22 Jul -2.8 00:31:23 10° W 00:34:35 46° N 00:37:47 10° ENE visible
22 Jul -3.4 02:08:06 10° WNW 02:11:23 61° NNE 02:14:39 10° E visible
22 Jul -3.3 03:44:43 10° WNW 03:47:47 36° SSW 03:50:50 10° SE visible
22 Jul -3.6 22:02:42 10° SW 22:05:51 49° SSE 22:09:03 10° ENE visible
22 Jul -3.0 23:39:09 10° W 23:42:22 53° N 23:45:37 10° ENE visible
23 Jul -3.0 01:15:57 10° WNW 01:19:11 50° N 01:20:50 24° ENE visible
23 Jul -1.7 02:52:30 10° WNW 02:53:20 16° WNW 02:53:20 16° WNW visible
23 Jul -3.5 22:46:54 10° W 22:50:10 67° NNW 22:53:28 10° ENE visible
24 Jul -2.7 00:23:46 10° WNW 00:26:57 45° N 00:29:08 18° ENE visible
24 Jul -2.0 02:00:20 10° WNW 02:01:43 23° WNW 02:01:43 23° WNW visible
24 Jul -3.9 21:54:43 10° WSW 21:58:00 88° SSE 22:01:18 10° ENE visible
24 Jul -2.7 23:31:31 10° WNW 23:34:41 45° N 23:37:53 10° ENE visible
25 Jul -3.0 01:08:10 10° WNW 01:10:45 48° NW 01:10:45 48° NW visible
25 Jul -2.9 22:39:14 10° W 22:42:26 50° N 22:45:40 10° ENE visible
26 Jul -3.1 00:16:00 10° WNW 00:19:15 53° N 00:19:57 42° ENE visible
26 Jul -0.9 01:52:33 10° WNW 01:52:35 10° WNW 01:52:35 10° WNW visible
26 Jul -3.2 21:46:56 10° W 21:50:11 61° NNW 21:53:28 10° ENE visible
26 Jul -2.8 23:23:47 10° WNW 23:26:59 46° N 23:29:16 17° ENE visible
27 Jul -2.0 01:00:20 10° WNW 01:01:54 26° WNW 01:01:54 26° WNW visible
27 Jul -2.7 22:31:31 10° WNW 22:34:41 45° N 22:37:52 10° ENE visible
28 Jul -3.7 00:08:08 10° WNW 00:11:16 72° NNW 00:11:16 72° NNW visible
28 Jul -2.8 21:39:12 10° W 21:42:24 48° N 21:45:36 10° ENE visible
28 Jul -3.3 23:15:56 10° WNW 23:19:11 57° NNE 23:20:40 28° E visible
29 Jul -1.3 00:52:31 10° WNW 00:53:17 16° W 00:53:17 16° W visible
29 Jul -2.9 22:23:41 10° WNW 22:26:54 48° N 22:30:05 10° E visible
